Back to catalog

ATLAS 5 CENTAUR DEB

LostHEO
NORAD 49364·DEBRIS·🇺🇸 United States

Launched Oct 17, 2018 from Cape Canaveral Space Force Station

Loading…

Next Passes (next 24 hours)

TLE

StaleSource: Space-Track

Epoch: Apr 28, 2024, 01:23 UTC

1 49364U 18079FR  24119.05765209 -.00000050  00000-0  00000-0 0  9998
2 49364  12.4092  78.7379 5017644 206.2469 115.9391  1.69993154 16545

Track ATLAS 5 CENTAUR DEB in real time with AllMySat

Download on the App Store